User: anonymous   Login
Location: Plymouth
(43.7570°N, 71.6890°W)
Time: 10:54:14
(UTC-04:00)
Language:

Cosmos 2016 Rocket - Orbit

View from above orbital plane
View from above orbital plane
View from above satellite
View from above satellite

Ground track
Ground track

The orbit data is extracted from the following two-line orbital elements,

1 19922U 89028B   18110.19441073  .00000051  00000-0  35888-4 0  9992
2 19922  82.9622 199.0349 0037979 105.5307 255.0049 13.77200475459486
Epoch (UTC): 20 April 2018 04:39:57
Eccentricity: 0.0037979
inclination: 82.9622°
perigee height: 946 km
apogee height: 1002 km
right ascension of ascending node: 199.0349°
argument of perigee: 105.5307°
revolutions per day: 13.77200475
mean anomaly at epoch: 255.0049°
orbit number at epoch: 45948

The dashed part of the orbit path shows where the satellite is in the earth's shadow,  

DLR